CW1172 Weather Reports


time (UTC)temp
C
wind
direction
speed
KPH
gust
KPH
rain 1hr
cm
rain 24hr
cm
rain mn
cm
humidity
%
barometer
mb
20260504191531 8 180 0.0 0.0 0.00 0.00 0.00 82 1007.0
20260504190028 9 205 0.0 0.0 0.00 0.00 0.00 81 1006.8
20260504184532 9 245 0.0 0.0 0.00 0.00 0.00 79 1007.0
20260504183031 10 223 0.0 0.0 0.00 0.00 0.00 78 1006.9
20260504181531 10 232 0.0 0.0 0.00 0.00 0.00 77 1006.8
20260504180032 10 360 0.0 0.0 0.00 0.00 0.00 76 1006.8
20260504174530 10 256 0.0 0.0 0.00 0.00 0.00 75 1006.9
20260504173029 11 250 0.0 0.0 0.00 0.00 0.00 73 1007.1
20260504171529 11 222 0.0 0.0 0.00 0.00 0.00 71 1007.1
20260504081600 12 273 0.0 0.0 0.00 0.00 0.00 71 1004.9
20260504044550 8 360 0.0 0.0 0.00 0.00 0.00 90 1004.2
20260504043055 8 215 0.0 0.0 0.00 0.00 0.00 90 1004.2
20260504041546 8 225 0.0 0.0 0.00 0.00 0.00 91 1004.2
20260504040048 8 360 0.0 0.0 0.00 0.00 0.00 91 1004.2
20260504034555 8 218 0.0 0.0 0.00 0.00 0.00 92 1004.2
20260504033044 8 191 0.0 0.0 0.00 0.00 0.00 92 1004.2
20260504031543 8 196 0.0 0.0 0.00 0.00 0.00 92 1004.3
20260504030040 8 197 0.0 0.0 0.00 0.00 0.00 92 1004.4
20260504024548 8 211 0.0 0.0 0.00 0.00 0.00 92 1004.5
20260504023041 9 179 0.0 0.0 0.00 0.00 0.00 92 1004.7
20260504021541 9 182 0.0 0.0 0.00 0.00 0.00 92 1004.9
20260504020041 9 180 0.0 0.0 0.00 0.00 0.00 92 1004.9
20260504014538 9 178 0.0 0.0 0.00 0.00 0.00 92 1005.0
20260504013046 9 178 0.0 0.0 0.00 0.00 0.00 92 1005.0
20260504011532 9 178 0.0 0.0 0.00 0.00 0.00 92 1005.3
20260504010032 9 179 0.0 0.0 0.00 0.00 0.00 91 1005.4
20260504004531 9 179 0.0 0.0 0.00 0.00 0.00 91 1005.4
20260504003029 9 179 0.0 0.0 0.00 0.00 0.00 91 1005.5
20260504001535 9 179 0.0 0.0 0.00 0.00 0.00 91 1005.6
20260504000027 10 178 0.0 0.0 0.00 0.00 0.00 91 1005.8
20260503234529 10 178 0.0 0.0 0.00 0.00 0.00 91 1006.0
20260503233024 10 178 0.0 0.0 0.00 0.00 0.00 91 1006.1
20260503231526 10 179 0.0 0.0 0.00 0.00 0.00 91 1006.2
20260503230036 10 178 0.0 0.0 0.00 0.00 0.00 91 1006.2
20260503224523 10 179 0.0 0.0 0.00 0.00 0.00 91 1006.3
20260503223023 10 179 0.0 0.0 0.00 0.00 0.00 91 1006.5
20260503221524 10 178 0.0 0.0 0.00 0.00 0.00 91 1006.6
20260503220021 10 179 0.0 0.0 0.00 0.00 0.00 91 1006.6
20260503214535 9 179 0.0 0.0 0.00 0.00 0.00 91 1006.8
20260503213020 9 178 0.0 0.0 0.00 0.00 0.00 90 1006.9
20260503211518 8 179 0.0 0.0 0.00 0.00 0.00 90 1007.0
20260503210018 8 179 0.0 0.0 0.00 0.00 0.00 90 1007.1
20260503204518 8 179 0.0 0.0 0.00 0.00 0.00 90 1007.2
20260503203022 8 178 0.0 0.0 0.00 0.00 0.00 89 1007.2
20260503201519 8 199 0.0 0.0 0.00 0.00 0.00 88 1007.2
20260503200017 8 200 0.0 0.0 0.00 0.00 0.00 87 1007.3
20260503194514 8 200 0.0 0.0 0.00 0.00 0.00 87 1007.6
20260503193023 8 200 0.0 0.0 0.00 0.00 0.00 86 1007.7